Location: *
(51.0333°S, 178.4667°E)
Time: 23:56:43
(UTC+00:00)

Starlink (trailer) - Pass Details

Date: 15 November 2019
Orbit: 529 x 530 km, 53.0° (Epoch: 07 December)

Event Time Altitude Azimuth Distance (km) Brightness Sun altitude
Rises 08:45:34 0° 276° (W) 2,673 7.7 -9.6°
Reaches altitude 10° 08:47:47 10° 273° (W) 1,787 6.8 -9.8°
Maximum altitude 08:51:49 70° 189° (S) 574 3.9 -10.2°
Drops below altitude 10° 08:55:54 10° 104° (ESE) 1,795 6.0 -10.7°
Sets 08:58:08 0° 101° (E) 2,687 6.8 -10.9°
